Location: Corralito
(10.2667°N, 66.9500°W)
Time: 22:54:41
(UTC+00:00)

YAOGAN 3 - Visible Passes

Search period start: 04 December 2023 00:00
Search period end: 14 December 2023 00:00
Orbit: 616 x 618 km, 97.9° (Epoch: 04 December)

Date Brightness Start Highest point End Pass type
(mag) Time Alt. Az. Time Alt. Az. Time Alt. Az.
04 Dec 6.2 22:33:10 10° ESE 22:35:23 14° ENE 22:37:34 10° NE visible
05 Dec 6.7 00:07:36 10° SSW 00:11:07 25° W 00:14:38 10° NW visible
05 Dec 5.6 22:48:15 10° SE 22:51:39 23° ENE 22:55:03 10° NNE visible
06 Dec 7.5 00:25:03 10° SW 00:27:29 15° W 00:29:54 10° WNW visible
06 Dec 5.0 23:03:57 10° SE 23:07:57 38° ENE 23:11:56 10° N visible
07 Dec 4.4 23:19:58 10° SSE 23:24:15 68° ENE 23:28:30 10° N visible
08 Dec 4.8 23:36:16 10° S 23:40:33 69° WSW 23:44:50 10° NNW visible
09 Dec 5.9 23:52:51 10° S 23:56:52 39° W 00:00:53 10° NNW visible
10 Dec 6.1 22:35:02 10° ESE 22:37:26 15° ENE 22:39:49 10° NE visible
11 Dec 6.8 00:09:45 10° SSW 00:13:11 23° W 00:16:36 10° NW visible
11 Dec 5.6 22:50:11 10° SE 22:53:41 24° ENE 22:57:09 10° NNE visible
12 Dec 7.6 00:27:17 10° SW 00:29:29 14° W 00:31:43 10° WNW visible
12 Dec 4.9 23:05:53 10° SSE 23:09:55 41° ENE 23:13:58 10° N visible
13 Dec 4.4 23:21:55 10° SSE 23:26:11 72° ENE 23:30:28 10° N visible
